CW9790 Weather Reports


Display with metric or nautical units.
time (UTC)temp
F
wind
direction
speed
MPH
gust
MPH
rain 1hr
in
rain 24hr
in
rain mn
in
humidity
%
barometer
mb
20260905201017 98 45 2.0 7.0 0.00 0.00 0.00 40 1011.5
20260905200037 98 135 2.0 6.0 0.00 0.00 0.00 41 1011.6
20260905195018 97 203 2.0 5.0 0.00 0.00 0.00 41 1011.6
20260905194018 97 90 3.0 11.0 0.00 0.00 0.00 41 1011.9
20260905193017 97 113 2.0 6.0 0.00 0.00 0.00 40 1012.2
20260905192017 97 135 2.0 9.0 0.00 0.00 0.00 42 1012.5
20260905191058 97 90 2.0 5.0 0.00 0.00 0.00 44 1012.6
20260905190038 96 113 2.0 7.0 0.00 0.00 0.00 44 1012.7
20260905185017 96 135 2.0 9.0 0.00 0.00 0.00 44 1012.9
20260905184017 96 135 2.0 6.0 0.00 0.00 0.00 44 1013.1
20260905183017 95 135 2.0 6.0 0.00 0.00 0.00 42 1013.1
20260905182017 95 135 2.0 5.0 0.00 0.00 0.00 41 1013.3
20260905181017 94 135 2.0 5.0 0.00 0.00 0.00 45 1013.4
20260905180037 94 45 3.0 9.0 0.00 0.00 0.00 47 1013.7
20260905175037 94 45 2.0 5.0 0.00 0.00 0.00 50 1013.8
20260905174017 94 135 2.0 6.0 0.00 0.00 0.00 52 1014.0
20260905173038 92 158 2.0 7.0 0.00 0.00 0.00 56 1014.1
20260905172017 92 225 2.0 6.0 0.00 0.00 0.00 55 1014.1
20260905171018 92 158 2.0 5.0 0.00 0.00 0.00 55 1014.2
20260905170019 91 113 2.0 7.0 0.00 0.00 0.00 56 1014.2
20260905165017 90 135 2.0 6.0 0.00 0.00 0.00 59 1014.2
20260905164017 90 135 2.0 6.0 0.00 0.00 0.00 61 1014.2
20260905163017 88 180 3.0 7.0 0.00 0.00 0.00 64 1014.1
20260905162017 87 180 3.0 7.0 0.00 0.00 0.00 65 1013.8
20260905161016 87 158 3.0 7.0 0.00 0.00 0.00 67 1013.9
20260905160017 86 135 3.0 10.0 0.00 0.00 0.00 69 1013.9
20260905155017 85 225 2.0 5.0 0.00 0.00 0.00 72 1013.7
20260905154016 83 135 3.0 7.0 0.00 0.00 0.00 75 1013.7
20260905153017 82 158 2.0 6.0 0.00 0.00 0.00 77 1013.7
20260905152017 81 248 2.0 6.0 0.00 0.00 0.00 78 1013.7
20260905151037 81 180 3.0 6.0 0.00 0.00 0.00 78 1013.8
20260905150017 81 135 2.0 7.0 0.00 0.00 0.00 82 1013.8
20260905145016 79 135 2.0 6.0 0.00 0.00 0.00 84 1013.7
20260905144016 78 135 2.0 6.0 0.00 0.00 0.00 86 1013.7
20260905143016 78 135 2.0 7.0 0.00 0.00 0.00 89 1013.5
20260905142016 77 135 2.0 6.0 0.00 0.00 0.00 90 1013.4
20260905141016 76 158 2.0 6.0 0.00 0.00 0.00 92 1013.4
20260905140016 76 203 2.0 7.0 0.00 0.00 0.00 93 1013.4
20260905135016 76 158 2.0 5.0 0.00 0.00 0.00 93 1013.3
20260905134016 75 135 2.0 5.0 0.00 0.00 0.00 93 1013.3
20260905133016 75 135 1.0 5.0 0.00 0.00 0.00 93 1013.2
20260905132016 75 135 1.0 4.0 0.00 0.00 0.00 94 1013.0
20260905131016 74 158 1.0 4.0 0.00 0.00 0.00 93 1013.0
20260905130058 74 0.0 3.0 0.00 0.00 0.00 93 1013.1
20260905125016 74 0.0 1.0 0.00 0.00 0.00 93 1012.9
20260905124016 73 0.0 1.0 0.00 0.00 0.00 93 1012.9
20260905123016 73 0.0 1.0 0.00 0.00 0.00 93 1012.8
20260905122016 73 0.0 1.0 0.00 0.00 0.00 93 1012.7
20260905121016 73 0.0 1.0 0.00 0.00 0.00 93 1012.7
20260905120016 73 0.0 1.0 0.00 0.00 0.00 92 1012.7
20260905115056 73 0.0 1.0 0.00 0.00 0.00 92 1012.6
20260905114017 73 0.0 0.0 0.00 0.00 0.00 92 1012.7
20260905113016 73 0.0 2.0 0.00 0.00 0.00 92 1012.7
20260905112016 73 0.0 3.0 0.00 0.00 0.00 92 1012.6
20260905111018 73 0.0 2.0 0.00 0.00 0.00 92 1012.7
20260905110019 73 0.0 0.0 0.00 0.00 0.00 91 1012.7
20260905105038 73 0.0 0.0 0.00 0.00 0.00 91 1012.7
20260905104038 72 0.0 0.0 0.00 0.00 0.00 90 1012.5
20260905103017 72 0.0 1.0 0.00 0.00 0.00 90 1012.5
20260905102039 72 0.0 0.0 0.00 0.00 0.00 89 1012.5
20260905101017 73 0.0 0.0 0.00 0.00 0.00 89 1012.5
20260905100017 73 0.0 0.0 0.00 0.00 0.00 88 1012.3
20260905095018 73 0.0 0.0 0.00 0.00 0.00 88 1012.5
20260905094017 73 0.0 0.0 0.00 0.00 0.00 87 1012.2
20260905093018 73 0.0 0.0 0.00 0.00 0.00 87 1012.3
20260905092017 73 0.0 0.0 0.00 0.00 0.00 87 1012.4
20260905091017 73 0.0 0.0 0.00 0.00 0.00 87 1012.3
20260905090017 73 0.0 0.0 0.00 0.00 0.00 87 1012.1
20260905085018 73 0.0 0.0 0.00 0.00 0.00 86 1012.2
20260905084017 74 0.0 0.0 0.00 0.00 0.00 86 1012.4
20260905083017 74 0.0 3.0 0.00 0.00 0.00 86 1012.4
20260905082017 74 0.0 3.0 0.00 0.00 0.00 84 1012.4
20260905081017 74 0.0 0.0 0.00 0.00 0.00 84 1012.5
20260905080037 74 0.0 0.0 0.00 0.00 0.00 83 1012.7
20260905075017 74 0.0 0.0 0.00 0.00 0.00 83 1012.7
20260905074017 74 0.0 0.0 0.00 0.00 0.00 82 1012.8
20260905073038 75 0.0 0.0 0.00 0.00 0.00 82 1012.8
20260905072057 75 0.0 2.0 0.00 0.00 0.00 82 1012.8
20260905071057 75 0.0 3.0 0.00 0.00 0.00 82 1012.9
20260905070017 75 0.0 3.0 0.00 0.00 0.00 81 1012.9
20260905065017 75 0.0 0.0 0.00 0.00 0.00 80 1012.9
20260905064038 75 0.0 2.0 0.00 0.00 0.00 80 1012.9
20260905063017 76 0.0 1.0 0.00 0.00 0.00 80 1012.9
20260905062017 76 0.0 2.0 0.00 0.00 0.00 80 1013.2
20260905061018 76 0.0 3.0 0.00 0.00 0.00 79 1012.9
20260905060017 76 0.0 3.0 0.00 0.00 0.00 79 1012.8
20260905055037 76 0.0 0.0 0.00 0.00 0.00 79 1012.8
20260905054018 76 0.0 2.0 0.00 0.00 0.00 79 1012.8
20260905053019 77 0.0 2.0 0.00 0.00 0.00 78 1012.8
20260905052017 77 0.0 3.0 0.00 0.00 0.00 78 1013.0
20260905051017 77 0.0 0.0 0.00 0.00 0.00 77 1013.1
20260905050017 77 0.0 2.0 0.00 0.00 0.00 77 1012.9
20260905045036 77 0.0 3.0 0.00 0.00 0.00 77 1013.0
20260905044016 77 0.0 1.0 0.00 0.00 0.00 77 1012.7
20260905043016 77 0.0 2.0 0.00 0.00 0.00 77 1012.8
20260905042117 77 135 1.0 2.0 0.00 0.00 0.00 77 1012.6
20260905041016 76 0.0 2.0 0.00 0.00 0.00 77 1012.8
20260905040016 76 0.0 2.0 0.00 0.00 0.00 77 1012.6
20260905035016 76 0.0 2.0 0.00 0.00 0.00 76 1012.6
20260905034016 76 0.0 3.0 0.00 0.00 0.00 76 1012.4
20260905033021 76 0.0 0.0 0.00 0.00 0.00 75 1012.2
20260905032016 77 0.0 0.0 0.00 0.00 0.00 75 1012.2
20260905031037 77 0.0 0.0 0.00 0.00 0.00 74 1011.9
20260905030036 77 0.0 0.0 0.00 0.00 0.00 72 1011.9
20260905025016 78 0.0 0.0 0.00 0.00 0.00 73 1011.8
20260905024017 78 0.0 0.0 0.00 0.00 0.00 73 1011.5
20260905023016 79 0.0 0.0 0.00 0.00 0.00 73 1011.4
20260905022018 79 0.0 1.0 0.00 0.00 0.00 72 1011.3
20260905021018 80 0.0 0.0 0.00 0.00 0.00 71 1011.1
20260905020017 80 0.0 0.0 0.00 0.00 0.00 70 1011.2
20260905015018 81 0.0 0.0 0.00 0.00 0.00 69 1011.2
20260905014017 81 0.0 0.0 0.00 0.00 0.00 68 1011.1
20260905013038 82 0.0 0.0 0.00 0.00 0.00 66 1011.2
20260905012018 82 0.0 0.0 0.00 0.00 0.00 65 1011.3
20260905011038 83 0.0 0.0 0.00 0.00 0.00 65 1011.2
20260905010018 84 0.0 2.0 0.00 0.00 0.00 64 1011.2
20260905005018 84 0.0 3.0 0.00 0.00 0.00 61 1011.4
20260905004017 85 135 1.0 4.0 0.00 0.00 0.00 61 1011.4
20260905003017 85 135 1.0 3.0 0.00 0.00 0.00 59 1011.4
20260905002017 86 135 1.0 3.0 0.00 0.00 0.00 61 1011.5
20260905001018 86 135 1.0 5.0 0.00 0.00 0.00 58 1011.3
20260905000017 86 158 1.0 4.0 0.00 0.00 0.00 57 1011.3
20260904235019 86 113 1.0 4.0 0.00 0.00 0.00 57 1011.2
20260904234018 87 135 1.0 3.0 0.00 0.00 0.00 58 1011.3
20260904233037 87 113 1.0 5.0 0.00 0.00 0.00 57 1011.0
20260904232018 88 113 1.0 3.0 0.00 0.00 0.00 58 1010.8
20260904231017 89 0.0 5.0 0.00 0.00 0.00 57 1010.9
20260904230037 90 68 2.0 4.0 0.00 0.00 0.00 55 1011.1
20260904225017 91 135 3.0 9.0 0.00 0.00 0.00 52 1010.9
20260904224058 92 135 2.0 10.0 0.00 0.00 0.00 51 1011.0
20260904223017 92 293 2.0 6.0 0.00 0.00 0.00 52 1011.0
20260904222017 91 135 2.0 6.0 0.00 0.00 0.00 53 1011.1
20260904221017 90 135 2.0 6.0 0.00 0.00 0.00 54 1010.9
20260904220017 90 113 1.0 6.0 0.00 0.00 0.00 52 1011.0
20260904215017 91 135 2.0 9.0 0.00 0.00 0.00 54 1011.3
20260904214017 92 158 2.0 7.0 0.00 0.00 0.00 56 1011.4
20260904213017 92 135 1.0 5.0 0.00 0.00 0.00 56 1011.6
20260904212017 91 68 2.0 6.0 0.00 0.00 0.00 58 1011.7
20260904211017 89 113 2.0 9.0 0.00 0.00 0.00 61 1011.7
20260904210037 87 135 1.0 5.0 0.00 0.00 0.00 65 1011.7
20260904205017 87 135 1.0 3.0 0.00 0.00 0.00 64 1011.7
20260904204017 87 113 2.0 7.0 0.00 0.00 0.00 62 1012.0
20260904203017 88 135 2.0 6.0 0.00 0.00 0.00 61 1012.2
20260904202017 88 158 2.0 7.0 0.00 0.00 0.00 61 1012.2